Home > Weather > Norderstedt > Past weeks

Flag for Germany Weather for the Past 2 Weeks in Norderstedt, Schleswig-Holstein, Germany

Now
45 °F

Clear.


Feels Like: 40 °F
Forecast: 43 / 49 °F
Wind: 9 mph from South

Location: Hamburg-Fuhlsbuettel

Current Time: Feb 7, 2016 at 3:20:26 AM

Latest Report: Feb 7, 2016 at 2:20 AM


Visibility: 10 mi

Pressure: 29.56 "Hg

Humidity: 81%

Dew point: 39 °F

Location of NorderstedtLocation

Historic Weather in Norderstedt — Graph

°F

Norderstedt Temperature Yesterday

Maximum temperature yesterday: 50 °F (at 11:50 AM)
Minimum temperature yesterday: 45 °F (at 9:50 PM)
Average temperature yesterday: 48 °F

High & Low Weather Summary for the Past Weeks

 TemperatureHumidityPressure
High54 °F (Feb 1, 8:20 PM)100% (Jan 23, 2:50 AM)30.45 "Hg (Jan 23, 2:50 AM)
Low27 °F (Jan 23, 1:20 AM)57% (Feb 2, 6:20 PM)29.53 "Hg (Jan 30, 2:20 PM)
Average44 °F87%29.94 "Hg
* Reported Jan 23 1:20 AM — Feb 7 1:20 AM, Norderstedt, Weather by CustomWeather, © 2016

Note: Actual official high and low records may vary slightly from our data, if they occured in-between our weather recording intervals... More about our weather records

Advertising

Norderstedt Weather History for the Previous 24 Hours

 ConditionsComfort  
Time TempWeatherWind HumidityBarometerVisibility
1:20 AM
Sun, Feb 7
45 °FClear.14 mph81%29.59 "Hg10 mi
12:50 AM45 °FClear.13 mph81%29.59 "Hg10 mi
12:20 AM45 °FClear.13 mph81%29.62 "Hg10 mi
11:50 PM
Sat, Feb 6
45 °FClear.13 mph81%29.62 "Hg10 mi
11:20 PM45 °FClear.14 mph87%29.62 "Hg10 mi
10:50 PM45 °FClear.13 mph87%29.62 "Hg10 mi
9:50 PM45 °FClear.10 mph87%29.65 "Hg10 mi
9:20 PM46 °FClear.10 mph82%29.65 "Hg10 mi
8:50 PM46 °FClear.10 mph87%29.68 "Hg10 mi
8:20 PM46 °FPassing clouds.8 mph87%29.68 "HgN/A
7:50 PM46 °FPassing clouds.8 mph82%29.68 "HgN/A
7:20 PM46 °FPassing clouds.9 mph82%29.68 "HgN/A
6:50 PM48 °FPassing clouds.9 mph82%29.71 "HgN/A
6:20 PM48 °FPartly cloudy.10 mph82%29.71 "HgN/A
5:50 PM50 °FPartly cloudy.8 mph76%29.71 "HgN/A
5:20 PM50 °FPassing clouds.9 mph76%29.74 "HgN/A
4:50 PM50 °FPartly sunny.12 mph76%29.74 "HgN/A
4:20 PM50 °FPartly sunny.14 mph76%29.74 "HgN/A
3:50 PM50 °FBroken clouds.17 mph76%29.74 "HgN/A
3:20 PM50 °FBroken clouds.13 mph76%29.74 "HgN/A
2:50 PM50 °FBroken clouds.14 mph76%29.77 "HgN/A
2:20 PM50 °FPartly sunny.13 mph76%29.77 "HgN/A
1:50 PM50 °FPartly sunny.13 mph76%29.80 "HgN/A
1:20 PM50 °FPartly sunny.15 mph76%29.80 "HgN/A
12:50 PM50 °FPartly sunny.12 mph82%29.80 "HgN/A
12:20 PM50 °FBroken clouds.10 mph76%29.83 "HgN/A
11:50 AM50 °FScattered clouds.12 mph76%29.83 "HgN/A
11:20 AM48 °FBroken clouds.13 mph87%29.83 "HgN/A
10:50 AM48 °FBroken clouds.16 mph87%29.83 "HgN/A
10:20 AM48 °FPartly sunny.17 mph87%29.83 "HgN/A
9:50 AM48 °FPartly sunny.15 mph87%29.86 "HgN/A
9:20 AM48 °FPartly sunny.13 mph87%29.86 "HgN/A
8:50 AM48 °FBroken clouds.13 mph87%29.89 "HgN/A
8:20 AM48 °FBroken clouds.13 mph87%29.89 "HgN/A
7:50 AM48 °FPartly cloudy.13 mph87%29.89 "HgN/A
7:20 AM48 °FPartly cloudy.12 mph87%29.89 "HgN/A
6:50 AM48 °FPassing clouds.15 mph87%29.89 "HgN/A
6:20 AM48 °FPassing clouds.14 mph87%29.89 "HgN/A
5:50 AM48 °FPassing clouds.13 mph87%29.92 "HgN/A
5:20 AM48 °FPartly cloudy.17 mph87%29.92 "HgN/A
4:50 AM48 °FPartly cloudy.17 mph87%29.92 "HgN/A
4:20 AM48 °FPartly cloudy.15 mph94%29.95 "HgN/A
3:50 AM48 °FPartly cloudy.14 mph94%29.95 "HgN/A
3:20 AM48 °FPartly cloudy.15 mph94%29.95 "Hg4 mi
Weather by CustomWeather, © 2016

See weather overviewHow to use our weather pages